Regional Weather Roundup
Issued by NWS

Current Version | Previous Version | Text Only | Print | Product List | Glossary On
Versions: 1 2 3 4 5 6 7 8 9 10 11 12 13 14 15 16 17 18 19 20 21 22 23 24 25 26 27 28 29 30 31 32 33 34 35 36 37 38 39 40 41 42 43 44 45 46 47 48 49 50
000
ASUS43 KLMK 011510
RWRKY
KENTUCKY REGIONAL WEATHER ROUNDUP
NATIONAL WEATHER SERVICE LOUISVILLE KY
1000 AM EST SUN MAR 01 2015

NOTE "FAIR" INDICATES FEW OR NO CLOUDS BELOW 12,000 FEET
WITH NO SIGNIFICANT WEATHER AND/OR OBSTRUCTIONS TO VISIBILITY.

KYZ001>023-026-027-061>063-070>075-011600-
WESTERN AND SOUTH CENTRAL KENTUCKY

CITY           SKY/WX    TMP DP  RH WIND       PRES   REMARKS
PADUCAH        LGT RAIN  34  30  85 CALM      30.36S
HENDERSON      CLOUDY    34  28  80 SW3       30.37S
OWENSBORO      LGT RAIN  33  32  96 S7        30.37F FOG     WCI  27
HOPKINSVILLE   LGT RAIN  36  32  85 NW2       30.39R
BOWLING GREEN  LGT RAIN  39  32  76 CALM      30.39S
GLASGOW        RAIN      38  34  84 CALM      30.39R
$$

KYZ024-025-028>034-038-045-046-053-011600-
NORTH CENTRAL KENTUCKY

CITY           SKY/WX    TMP DP  RH WIND       PRES   REMARKS
LOUISVILLE/SDF LGT RAIN  33  31  92 S3        30.38R FOG
LOUISVILLE/LOU LGT RAIN  33  29  85 SW3       30.39R FOG
FORT KNOX      LGT RAIN  32  30  92 SE6       30.35R WCI  27
$$

KYZ035>037-039>044-047>052-055>060-089>105-011600-
NORTHEAST KENTUCKY

CITY           SKY/WX    TMP DP  RH WIND       PRES   REMARKS
LEXINGTON      LGT RAIN  36  33  89 SE7       30.37F WCI  30
COVINGTON      FRZ DRZL  32  27  81 S5        30.35F WCI  27
FRANKFORT      LGT RAIN  34  31  88 S5        30.36F FOG     WCI  30
$$

KYZ054-064>069-076>088-106>120-011600-
SOUTHEAST KENTUCKY

CITY           SKY/WX    TMP DP  RH WIND       PRES   REMARKS
JACKSON        LGT RAIN  37  27  67 CALM      30.39S
LONDON         CLOUDY    41  28  60 NW3       30.39F
SOMERSET       CLOUDY    41  32  70 S3        30.40F
MIDDLESBORO    CLOUDY    42  29  61 SE6       30.43F
MONTICELLO     CLOUDY    47  37  68 SE8       30.40F
$$



USA.gov is the U.S. government's official web portal to all federal, state and local government web resources and services.